EW2485 Weather Reports


Display with metric or nautical units.
time (UTC)temp
F
wind
direction
speed
MPH
gust
MPH
rain 1hr
in
rain 24hr
in
rain mn
in
humidity
%
barometer
mb
20260509230047 56 167 5.0 11.0 0.00 0.21 0.21 81 1007.3
20260509224519 56 172 5.0 14.0 0.00 0.21 0.21 81 1007.3
20260509223045 56 160 7.0 21.0 0.00 0.21 0.21 81 1007.4
20260509221557 56 170 9.0 16.0 0.00 0.21 0.21 82 1007.5
20260509220015 55 150 10.0 18.0 0.00 0.21 0.21 81 1007.2
20260509214539 55 185 10.0 20.0 0.00 0.21 0.21 82 1007.2
20260509213101 55 167 8.0 17.0 0.00 0.21 0.21 82 1007.2
20260509211513 55 174 6.0 17.0 0.00 0.21 0.21 83 1007.3
20260509210043 54 189 10.0 19.0 0.00 0.21 0.21 82 1007.7
20260509204530 54 178 7.0 16.0 0.00 0.21 0.21 83 1007.8
20260509203007 54 314 6.0 19.0 0.00 0.21 0.21 83 1008.0
20260509201601 54 159 10.0 19.0 0.00 0.21 0.21 83 1008.1
20260509200023 53 161 7.0 16.0 0.00 0.21 0.21 84 1008.2
20260509194541 52 168 8.0 15.0 0.00 0.21 0.21 84 1008.4
20260509193001 52 196 5.0 13.0 0.00 0.21 0.21 84 1008.6
20260509191531 52 194 6.0 16.0 0.00 0.21 0.21 84 1008.7
20260509190051 52 154 5.0 13.0 0.00 0.21 0.21 84 1008.8
20260509184508 52 196 5.0 11.0 0.00 0.21 0.21 83 1008.9
20260509183036 52 176 7.0 15.0 0.00 0.21 0.21 83 1009.0
20260509181553 52 172 4.0 11.0 0.00 0.21 0.21 83 1008.9
20260509180018 51 206 4.0 14.0 0.00 0.21 0.21 83 1009.0
20260509174548 51 178 6.0 13.0 0.00 0.21 0.21 83 1008.9
20260509173032 51 168 3.0 15.0 0.00 0.21 0.21 84 1008.9
20260509171535 51 175 4.0 11.0 0.00 0.21 0.21 84 1008.8
20260509170056 51 162 7.0 14.0 0.00 0.21 0.21 84 1008.8
20260509164526 51 174 9.0 16.0 0.00 0.21 0.21 84 1009.0
20260509163046 51 188 5.0 14.0 0.00 0.21 0.21 85 1009.0
20260509161602 51 186 6.0 15.0 0.00 0.21 0.21 85 1009.3
20260509160029 50 186 9.0 16.0 0.00 0.21 0.21 85 1009.3
20260509154549 50 159 6.0 18.0 0.00 0.21 0.21 85 1009.5
20260509153024 50 178 8.0 14.0 0.00 0.21 0.21 86 1009.6
20260509151606 50 172 7.0 14.0 0.00 0.21 0.21 86 1009.7
20260509150050 49 168 8.0 15.0 0.00 0.23 0.21 86 1009.7
20260509144510 49 164 5.0 12.0 0.02 0.23 0.21 86 1009.8
20260509143042 49 178 6.0 14.0 0.03 0.23 0.21 86 1009.9
20260509141556 49 163 5.0 12.0 0.04 0.23 0.21 86 1010.0
20260509140016 48 150 2.0 8.0 0.04 0.35 0.21 86 1010.2
20260509134545 48 171 4.0 7.0 0.04 0.34 0.19 86 1010.3
20260509133004 48 143 4.0 9.0 0.04 0.33 0.18 86 1010.3
20260509131539 48 169 3.0 6.0 0.04 0.32 0.17 86 1010.4
20260509130104 47 148 3.0 11.0 0.04 0.32 0.16 86 1010.6
20260509124519 47 199 4.0 9.0 0.05 0.31 0.15 86 1010.5
20260509123102 47 178 4.0 8.0 0.06 0.30 0.14 86 1010.6
20260509121543 47 183 4.0 14.0 0.08 0.28 0.13 86 1010.8
20260509120016 47 208 5.0 10.0 0.10 0.28 0.12 85 1010.9
20260509114603 46 164 3.0 6.0 0.10 0.26 0.10 85 1011.1
20260509113026 46 150 3.0 7.0 0.08 0.24 0.08 85 1011.0
20260509111549 46 46 2.0 4.0 0.05 0.21 0.06 85 1011.1
20260509110013 46 143 1.0 5.0 0.02 0.18 0.02 85 1011.0
20260509104539 46 124 3.0 11.0 0.00 0.16 0.00 85 1010.9
20260509103057 46 178 4.0 8.0 0.00 0.16 0.00 85 1010.8
20260509101522 45 152 3.0 9.0 0.00 0.16 0.00 84 1010.6
20260509100050 45 152 3.0 7.0 0.00 0.16 0.00 84 1010.8
20260509094557 44 178 2.0 5.0 0.00 0.16 0.00 84 1010.8
20260509093031 43 171 3.0 6.0 0.00 0.16 0.00 84 1010.7
20260509091507 43 1 1.0 5.0 0.00 0.16 0.00 84 1010.7
20260509090055 43 152 2.0 5.0 0.00 0.16 0.00 84 1010.8
20260509084528 42 193 1.0 3.0 0.00 0.16 0.00 83 1011.1
20260509083041 42 296 1.0 6.0 0.00 0.16 0.00 83 1010.9
20260509081559 41 11 2.0 4.0 0.00 0.16 0.00 83 1011.1
20260509080015 41 344 3.0 4.0 0.00 0.16 0.00 83 1011.4
20260509074546 41 1 2.0 4.0 0.00 0.16 0.00 83 1011.4
20260509073007 42 342 2.0 5.0 0.00 0.16 0.00 83 1011.5
20260509071535 42 336 1.0 4.0 0.00 0.16 0.00 83 1011.5
20260509070055 42 1 2.0 4.0 0.00 0.16 0.00 83 1011.5
20260509064521 43 336 2.0 4.0 0.00 0.16 0.00 82 1011.7
20260509063004 43 223 1.0 5.0 0.00 0.16 0.00 81 1011.8
20260509061547 42 178 1.0 3.0 0.00 0.16 0.00 81 1012.0
20260509060109 41 102 2.0 3.0 0.00 0.16 0.00 81 1012.2
20260509054526 40 178 1.0 3.0 0.00 0.16 0.00 81 1012.2
20260509053049 39 46 2.0 4.0 0.00 0.16 0.00 82 1012.3
20260509051528 39 331 1.0 3.0 0.00 0.16 0.00 82 1012.4
20260509050048 39 28 2.0 4.0 0.00 0.16 0.00 81 1012.5
20260509044557 38 351 3.0 5.0 0.00 0.16 0.00 81 1012.5
20260509043012 37 1 3.0 5.0 0.00 0.16 0.00 81 1012.4
20260509041538 38 351 2.0 5.0 0.00 0.16 0.00 81 1012.6
20260509040058 38 339 3.0 6.0 0.00 0.16 0.16 81 1012.7
20260509034515 37 1 2.0 4.0 0.00 0.16 0.16 82 1012.7
20260509033040 38 15 2.0 6.0 0.00 0.16 0.16 82 1012.7
20260509031603 38 28 3.0 7.0 0.00 0.16 0.16 82 1012.7
20260509030032 39 1 4.0 6.0 0.00 0.16 0.16 81 1012.8
20260509024549 39 13 2.0 5.0 0.00 0.16 0.16 81 1013.0
20260509023014 40 46 2.0 5.0 0.00 0.16 0.16 81 1013.1
20260509021534 40 20 3.0 6.0 0.00 0.16 0.16 81 1012.9
20260509020022 41 13 4.0 5.0 0.00 0.16 0.16 81 1013.1
20260509014557 41 20 4.0 6.0 0.00 0.16 0.16 80 1013.0
20260509013105 41 347 2.0 4.0 0.00 0.16 0.16 80 1012.8
20260509011517 41 6 2.0 8.0 0.00 0.16 0.16 79 1012.6
20260509010035 41 13 4.0 6.0 0.00 0.16 0.16 79 1012.4
20260509004554 42 8 4.0 7.0 0.00 0.16 0.16 78 1012.2
20260509003016 44 1 3.0 5.0 0.00 0.16 0.16 75 1012.1
20260509001537 45 331 4.0 5.0 0.00 0.16 0.16 71 1011.9
20260509000055 47 1 4.0 5.0 0.00 0.16 0.16 68 1011.8
20260508234509 50 340 2.0 5.0 0.00 0.16 0.16 63 1011.6
20260508233036 51 344 3.0 7.0 0.00 0.16 0.16 61 1011.4
20260508231555 52 338 4.0 7.0 0.00 0.16 0.16 61 1011.4